Date,TemperatureHighF,TemperatureAvgF,TemperatureLowF,DewpointHighF,DewpointAvgF,DewpointLowF,HumidityHigh,HumidityAvg,HumidityLow,PressureMaxIn,PressureMinIn,WindSpeedMaxMPH,WindSpeedAvgMPH,GustSpeedMaxMPH,PrecipitationSumIn
2013-1-2,55.0,42.4,28.0,0.0,0.0,0.0,42,26,15,30.23,30.12,17,5,17,0.00
2013-1-3,55.0,37.8,24.0,0.0,0.0,0.0,49,28,11,30.28,30.15,21,7,21,0.00
2013-1-4,53.0,35.3,20.0,0.0,0.0,0.0,43,27,13,30.33,30.20,14,4,15,0.00
2013-1-5,53.0,37.6,23.0,0.0,0.0,0.0,42,26,13,30.34,30.13,14,4,14,0.00
2013-1-6,55.0,43.7,35.0,0.0,0.0,0.0,82,50,22,30.12,29.95,25,11,26,0.00
2013-1-7,58.0,42.4,28.0,0.0,0.0,0.0,83,45,18,30.13,30.02,17,6,17,0.00
2013-1-8,64.0,47.3,31.0,0.0,0.0,0.0,57,40,27,30.21,30.09,16,7,16,0.00
2013-1-9,64.0,50.6,33.0,0.0,0.0,0.0,70,43,25,30.21,29.84,23,9,23,0.00
2013-1-10,54.0,44.9,38.0,0.0,0.0,0.0,72,36,18,29.95,29.72,38,18,39,0.00
2013-1-11,48.0,36.9,26.0,0.0,0.0,0.0,53,34,14,30.06,29.95,22,8,22,0.00
2013-1-12,46.0,31.6,17.0,0.0,0.0,0.0,59,34,18,30.13,30.02,13,1,14,0.00
2013-1-13,41.0,28.5,14.0,0.0,0.0,0.0,50,31,19,30.18,30.03,14,0,15,0.00
2013-1-14,39.0,29.2,15.0,0.0,0.0,0.0,39,24,14,30.35,30.18,17,2,17,0.00
2013-1-15,47.0,32.2,18.0,0.0,0.0,0.0,40,27,14,30.50,30.35,15,3,16,0.00
2013-1-16,56.0,37.2,21.0,0.0,0.0,0.0,50,33,18,30.47,30.31,15,5,16,0.00
2013-1-17,61.0,41.9,23.0,0.0,0.0,0.0,51,28,11,30.37,30.24,20,7,20,0.00
2013-1-18,61.0,40.6,23.0,0.0,0.0,0.0,36,23,11,30.32,30.20,18,8,18,0.00
2013-1-19,60.0,41.3,22.0,0.0,0.0,0.0,37,22,11,30.34,30.21,17,6,18,0.00
2013-1-20,62.0,41.7,23.0,0.0,0.0,0.0,34,20,10,30.28,30.15,17,7,17,0.00
2013-1-21,67.0,45.4,26.0,0.0,0.0,0.0,32,18,7,30.26,30.13,20,9,20,0.00
2013-1-22,66.0,45.7,28.0,0.0,0.0,0.0,30,19,10,30.24,30.12,17,7,17,0.00
2013-1-23,57.0,49.0,36.0,0.0,0.0,0.0,68,25,13,30.19,30.08,15,4,17,0.00
2013-1-24,55.0,49.3,46.0,0.0,0.0,0.0,87,73,37,30.24,30.12,18,2,18,0.00
2013-1-25,58.0,50.9,45.0,0.0,0.0,0.0,93,79,59,30.24,30.02,10,2,10,0.00
2013-1-26,62.0,53.7,48.0,0.0,0.0,0.0,95,75,48,30.02,29.82,28,5,28,0.00
2013-1-27,56.0,47.3,36.0,0.0,0.0,0.0,74,50,17,29.94,29.82,30,15,32,0.00
2013-1-28,53.0,42.9,33.0,0.0,0.0,0.0,62,37,16,30.10,29.94,21,6,21,0.00
2013-1-29,61.0,44.7,34.0,0.0,0.0,0.0,68,50,30,30.24,30.03,22,9,23,0.00
2013-1-30,65.0,49.7,36.0,0.0,0.0,0.0,69,45,26,30.34,30.22,20,5,20,0.00
2013-1-31,66.0,49.6,35.0,0.0,0.0,0.0,73,47,24,30.30,30.16,15,6,16,0.00
2013-2-4,70.0,57.2,38.0,0.0,0.0,0.0,71,31,16,30.14,30.01,14,4,14,0.00
2013-2-5,73.0,57.2,40.0,0.0,0.0,0.0,50,29,13,30.04,29.84,28,10,28,0.00
2013-2-6,67.0,55.1,41.0,0.0,0.0,0.0,61,32,11,30.07,29.85,28,7,28,0.00
2013-2-7,68.0,50.5,37.0,0.0,0.0,0.0,52,32,8,30.07,29.81,28,11,32,0.00
2013-2-8,54.0,43.1,36.0,0.0,0.0,0.0,65,49,23,29.81,29.71,33,18,37,0.00
2013-2-9,58.0,44.8,35.0,0.0,0.0,0.0,61,39,17,30.00,29.79,22,11,24,0.00
2013-2-10,56.0,43.3,27.0,0.0,0.0,0.0,62,39,17,30.02,29.89,28,8,28,0.00
2013-2-11,52.0,42.7,32.0,0.0,0.0,0.0,45,22,10,30.22,30.02,26,8,33,0.00
2013-2-12,58.0,41.0,0.0,0.0,0.0,0.0,37,23,12,30.33,30.21,15,5,18,0.00
2013-2-13,64.0,46.2,28.0,0.0,0.0,0.0,38,24,13,30.29,30.14,15,6,17,0.00
2013-2-14,68.0,52.1,32.0,0.0,0.0,0.0,44,27,16,30.25,30.14,21,9,23,0.00
2013-2-15,69.0,57.7,42.0,0.0,0.0,0.0,34,21,11,30.33,30.25,22,9,26,0.00
2013-2-16,68.0,50.4,32.0,0.0,0.0,0.0,39,23,11,30.32,29.99,16,7,17,0.00
2013-2-17,72.0,55.7,40.0,0.0,0.0,0.0,38,21,7,29.99,29.82,18,6,21,0.00
2013-2-18,70.0,53.3,35.0,0.0,0.0,0.0,61,31,13,30.01,29.82,20,8,22,0.00
2013-2-19,57.0,46.4,37.0,0.0,0.0,0.0,79,50,22,29.84,29.53,36,19,43,0.00
2013-2-20,59.0,44.2,35.0,0.0,0.0,0.0,82,46,17,29.89,29.50,24,10,31,0.00
2013-2-21,54.0,41.4,30.0,0.0,0.0,0.0,62,36,13,30.06,29.89,22,9,30,0.00
2013-2-22,62.0,45.6,27.0,0.0,0.0,0.0,63,30,11,30.18,30.06,22,6,23,0.00
2013-2-23,45.0,43.3,42.0,0.0,0.0,0.0,42,34,25,30.08,30.02,21,12,24,0.00
2013-2-25,63.0,49.3,28.0,0.0,0.0,0.0,31,17,9,30.22,29.97,18,6,22,0.00
2013-2-26,61.0,46.9,29.0,0.0,0.0,0.0,42,20,10,30.20,30.02,22,11,24,0.00
2013-2-27,61.0,48.3,34.0,0.0,0.0,0.0,29,17,9,30.34,30.20,21,6,21,0.00
2013-2-28,68.0,49.5,29.0,0.0,0.0,0.0,27,16,8,30.41,30.32,14,5,17,0.00
2013-3-4,72.0,61.8,44.0,0.0,0.0,0.0,54,26,15,30.05,29.98,16,4,20,0.00
2013-3-5,74.0,58.8,43.0,0.0,0.0,0.0,55,34,20,30.05,29.86,33,10,36,0.00
2013-3-6,66.0,52.4,42.0,0.0,0.0,0.0,74,50,23,29.99,29.87,43,21,44,0.00
2013-3-7,58.0,49.6,43.0,0.0,0.0,0.0,75,48,33,29.91,29.80,30,13,39,0.00
2013-3-8,46.0,41.0,36.0,0.0,0.0,0.0,88,71,48,29.88,29.71,26,9,28,0.00
2013-3-9,63.0,50.2,37.0,0.0,0.0,0.0,76,48,19,30.21,29.88,21,9,23,0.00
2013-3-10,69.0,56.1,40.0,0.0,0.0,0.0,47,22,10,30.32,30.17,16,3,16,0.00
2013-3-11,73.0,55.3,36.0,0.0,0.0,0.0,51,27,8,30.23,30.06,16,6,16,0.00
2013-3-12,78.0,60.0,40.0,0.0,0.0,0.0,46,24,9,30.18,30.06,14,5,23,0.00
2013-3-13,83.0,64.1,44.0,0.0,0.0,0.0,42,24,11,30.24,30.10,12,4,13,0.00
2013-3-14,89.0,68.5,47.0,0.0,0.0,0.0,43,22,9,30.20,30.03,12,5,14,0.00
2013-3-15,89.0,74.4,61.0,0.0,0.0,0.0,40,23,7,30.05,29.84,28,10,31,0.00
2013-3-16,68.0,65.7,64.0,0.0,0.0,0.0,33,28,26,29.88,29.87,22,9,22,0.00
2013-3-18,80.0,67.2,46.0,0.0,0.0,0.0,38,18,8,30.04,29.89,24,8,26,0.00
2013-3-19,81.0,68.5,58.0,0.0,0.0,0.0,31,19,11,30.05,29.89,21,7,22,0.00
2013-3-20,77.0,66.8,0.0,0.0,0.0,0.0,45,28,14,30.02,29.82,38,18,48,0.00
2013-3-21,80.0,64.8,52.0,0.0,0.0,0.0,45,28,12,29.90,29.70,20,8,23,0.00
2013-3-22,76.0,60.2,44.0,0.0,0.0,0.0,44,25,6,29.90,29.74,24,7,28,0.00
2013-3-23,68.0,56.9,40.0,0.0,0.0,0.0,58,20,6,30.08,29.89,21,10,25,0.00
2013-3-24,74.0,58.8,39.0,0.0,0.0,0.0,24,12,7,30.07,29.90,14,5,17,0.00
2013-3-25,79.0,64.5,48.0,0.0,0.0,0.0,34,19,10,29.98,29.83,25,8,29,0.00
2013-3-26,83.0,67.5,58.0,0.0,0.0,0.0,35,20,10,29.88,29.75,39,16,39,0.00
2013-3-27,81.0,66.1,56.0,0.0,0.0,0.0,48,31,12,29.91,29.80,29,13,33,0.00
2013-3-28,81.0,66.0,55.0,0.0,0.0,0.0,54,33,12,30.02,29.90,28,12,40,0.00
2013-3-29,83.0,68.3,52.0,0.0,0.0,0.0,47,27,11,30.11,30.00,22,7,26,0.00
2013-3-30,83.0,71.0,63.0,0.0,0.0,0.0,41,23,10,30.07,29.95,23,10,28,0.00
2013-3-31,75.0,62.8,54.0,0.0,0.0,0.0,67,43,23,30.03,29.92,36,16,38,0.00
2013-4-1,76.0,63.8,52.0,0.0,0.0,0.0,60,30,15,30.03,29.90,24,9,33,0.00
2013-4-2,79.0,64.1,49.0,0.0,0.0,0.0,52,31,12,30.07,29.94,15,5,17,0.00
2013-4-3,87.0,69.0,50.0,0.0,0.0,0.0,55,29,13,30.10,29.97,15,6,20,0.00
2013-4-4,83.0,69.7,60.0,0.0,0.0,0.0,44,28,16,30.02,29.91,30,14,35,0.00
2013-4-5,82.0,67.0,0.0,0.0,0.0,0.0,53,33,14,30.00,29.86,28,11,39,0.00
2013-4-6,82.0,66.0,51.0,0.0,0.0,0.0,47,31,14,30.01,29.85,23,7,26,0.00
2013-4-7,82.0,67.1,52.0,0.0,0.0,0.0,49,29,14,29.93,29.67,32,10,39,0.00
2013-4-8,68.0,59.9,50.0,0.0,0.0,0.0,49,31,16,29.69,29.46,47,19,52,0.00
2013-4-9,70.0,62.0,0.0,0.0,0.0,0.0,30,17,6,30.05,29.54,26,14,35,0.00
2013-4-10,81.0,66.9,51.0,0.0,0.0,0.0,21,13,7,30.15,29.95,21,7,25,0.00
2013-4-11,82.0,69.7,58.0,0.0,0.0,0.0,36,19,10,29.96,29.70,23,8,26,0.00
2013-4-12,87.0,70.6,51.0,0.0,0.0,0.0,52,27,11,29.87,29.72,21,6,22,0.00
2013-4-13,90.0,73.8,60.0,0.0,0.0,0.0,44,25,10,29.80,29.58,31,16,40,0.00
2013-4-14,90.0,72.8,62.0,0.0,0.0,0.0,39,24,12,29.70,29.48,39,17,48,0.00
2013-4-15,73.0,62.4,50.0,0.0,0.0,0.0,65,30,14,29.66,29.52,50,26,59,0.00
2013-4-16,66.0,54.3,42.0,0.0,0.0,0.0,58,28,15,29.96,29.66,28,11,36,0.00
2013-4-17,64.0,57.1,47.0,0.0,0.0,0.0,27,15,9,30.19,29.96,23,10,30,0.00
2013-4-18,68.0,58.3,46.0,0.0,0.0,0.0,20,13,7,30.29,30.17,22,5,37,0.00
2013-4-19,80.0,62.4,0.0,0.0,0.0,0.0,25,12,6,30.24,29.95,17,6,21,0.00
2013-4-20,84.0,69.2,48.0,0.0,0.0,0.0,34,18,8,30.06,29.92,15,5,20,0.00
2013-4-21,88.0,73.8,56.0,0.0,0.0,0.0,38,21,9,30.02,29.85,25,7,30,0.00
2013-4-22,93.0,77.1,62.0,0.0,0.0,0.0,27,17,8,29.94,29.71,25,10,28,0.00
2013-4-23,78.0,69.5,61.0,0.0,0.0,0.0,26,12,5,30.04,29.77,23,9,28,0.00
2013-4-24,80.0,69.4,54.0,0.0,0.0,0.0,30,10,5,29.94,29.80,21,7,33,0.00
2013-4-25,87.0,69.2,51.0,0.0,0.0,0.0,65,32,8,29.99,29.83,25,13,35,0.00
2013-4-26,91.0,73.6,57.0,0.0,0.0,0.0,46,22,5,30.14,29.99,18,6,21,0.00
2013-4-27,94.0,78.0,60.0,0.0,0.0,0.0,45,19,6,30.16,29.97,20,6,21,0.00
2013-4-28,98.0,81.5,64.0,0.0,0.0,0.0,31,16,6,29.99,29.80,22,7,24,0.00
2013-4-29,99.0,81.4,64.0,0.0,0.0,0.0,33,20,6,29.87,29.66,29,10,31,0.00
2013-4-30,98.0,79.9,0.0,0.0,0.0,0.0,38,23,7,29.76,29.60,29,15,32,0.00
2013-5-1,82.0,74.4,65.0,0.0,0.0,0.0,37,7,4,30.17,29.76,22,11,33,0.00
2013-5-2,80.0,69.9,56.0,0.0,0.0,0.0,11,7,4,30.33,30.14,23,12,29,0.00
2013-5-3,91.0,70.8,45.0,0.0,0.0,0.0,17,7,4,30.15,29.80,14,6,17,0.00
2013-5-4,92.0,75.1,58.0,0.0,0.0,0.0,24,15,6,29.80,29.58,40,14,44,0.00
2013-5-5,68.0,61.4,54.0,0.0,0.0,0.0,59,38,14,29.87,29.67,31,16,44,0.00
2013-5-6,74.0,60.1,49.0,0.0,0.0,0.0,68,48,29,29.92,29.84,30,13,39,0.00
2013-5-7,74.0,60.7,50.0,0.0,0.0,0.0,62,43,25,29.95,29.85,28,14,31,0.00
2013-5-8,78.0,63.6,50.0,0.0,0.0,0.0,68,42,21,30.04,29.94,23,8,28,0.00
2013-5-9,80.0,66.3,54.0,0.0,0.0,0.0,63,42,20,30.06,29.98,26,6,37,0.00
2013-5-10,91.0,73.8,53.0,0.0,0.0,0.0,60,31,12,30.11,29.99,12,4,20,0.00
2013-5-11,93.0,79.1,60.0,0.0,0.0,0.0,38,19,9,30.15,30.04,18,5,28,0.00
2013-5-12,100.0,82.5,0.0,0.0,0.0,0.0,27,16,9,30.14,29.96,15,5,18,0.00
2013-5-13,102.0,87.0,69.0,0.0,0.0,0.0,32,17,7,30.05,29.88,24,8,28,0.00
2013-5-14,96.0,82.6,72.0,0.0,0.0,0.0,29,16,4,29.95,29.79,39,17,45,0.00
2013-5-15,99.0,81.4,0.0,0.0,0.0,0.0,37,19,9,29.92,29.75,30,11,39,0.00
2013-5-16,94.0,77.1,65.0,0.0,0.0,0.0,38,20,10,29.84,29.73,31,17,37,0.00
2013-5-17,85.0,71.6,60.0,0.0,0.0,0.0,49,31,16,29.86,29.75,32,14,37,0.00
2013-5-18,65.0,63.9,62.0,0.0,0.0,0.0,36,33,32,29.88,29.86,15,10,17,0.00
2013-5-20,88.0,79.3,62.0,0.0,0.0,0.0,33,11,6,30.08,29.88,20,6,23,0.00
2013-5-21,95.0,77.8,0.0,0.0,0.0,0.0,27,14,7,29.95,29.70,35,14,39,0.00
2013-5-22,87.0,73.6,64.0,0.0,0.0,0.0,31,17,6,29.76,29.59,41,23,51,0.00
2013-5-23,82.0,69.5,55.0,0.0,0.0,0.0,25,13,5,29.79,29.67,39,20,41,0.00
2013-5-28,91.0,79.2,66.0,0.0,0.0,0.0,39,25,16,29.75,29.63,21,9,26,0.00
2013-5-29,93.0,76.3,60.0,0.0,0.0,0.0,53,30,15,29.80,29.64,21,10,26,0.00
2013-5-30,97.0,79.9,62.0,0.0,0.0,0.0,47,24,9,29.84,29.70,24,10,26,0.00
2013-5-31,96.0,81.9,0.0,0.0,0.0,0.0,34,16,7,29.95,29.78,18,6,21,0.00
2013-6-1,73.0,71.1,69.0,0.0,0.0,0.0,15,12,11,29.89,29.89,8,5,8,0.00
2013-6-3,100.0,89.2,71.0,0.0,0.0,0.0,26,15,7,29.79,29.70,24,12,29,0.00
2013-6-4,101.0,84.5,69.0,0.0,0.0,0.0,38,21,8,29.86,29.76,24,12,30,0.00
2013-6-5,105.0,86.6,68.0,0.0,0.0,0.0,41,23,8,29.93,29.77,24,9,35,0.00
2013-6-6,106.0,90.1,73.0,0.0,0.0,0.0,40,21,7,29.88,29.75,23,8,28,0.00
2013-6-7,108.0,91.8,74.0,0.0,0.0,0.0,40,20,5,29.85,29.71,22,7,28,0.00
2013-6-8,111.0,94.0,0.0,0.0,0.0,0.0,36,17,6,29.80,29.70,33,9,37,0.00
2013-6-9,103.0,89.6,76.0,0.0,0.0,0.0,21,12,4,29.86,29.76,36,13,37,0.00
2013-6-10,91.0,80.5,0.0,0.0,0.0,0.0,29,16,6,29.87,29.75,32,14,44,0.00
2013-6-11,101.0,85.2,0.0,0.0,0.0,0.0,28,18,8,29.95,29.81,28,12,36,0.00
2013-6-12,100.0,86.4,76.0,0.0,0.0,0.0,32,18,7,29.92,29.82,30,15,36,0.00
2013-6-13,99.0,82.9,72.0,0.0,0.0,0.0,34,17,4,29.91,29.77,37,19,41,0.00
2013-6-14,99.0,81.4,0.0,0.0,0.0,0.0,24,13,4,29.93,29.75,25,8,29,0.00
2013-6-15,96.0,81.2,64.0,0.0,0.0,0.0,34,17,4,29.89,26.68,28,13,32,0.00
2013-6-16,98.0,81.4,0.0,0.0,0.0,0.0,27,16,5,29.96,29.85,21,10,25,0.00
2013-6-17,76.0,74.3,67.0,0.0,0.0,0.0,31,22,18,29.95,29.91,16,8,18,0.00
2013-6-18,99.0,81.3,72.0,0.0,0.0,0.0,22,17,5,29.95,29.71,32,15,40,0.00
2013-6-19,94.0,79.4,68.0,0.0,0.0,0.0,30,17,7,29.82,29.71,24,10,35,0.00
2013-6-20,94.0,77.9,0.0,0.0,0.0,0.0,28,16,6,29.86,29.73,25,11,30,0.00
2013-6-21,72.0,70.0,69.0,0.0,0.0,0.0,29,25,21,29.80,29.79,21,15,28,0.00
2013-6-24,90.0,78.9,67.0,0.0,0.0,0.0,46,30,21,29.81,29.69,37,20,38,0.00
2013-6-25,101.0,81.8,0.0,0.0,0.0,0.0,50,32,13,29.92,29.80,35,15,36,0.00
2013-6-26,103.0,88.4,72.0,0.0,0.0,0.0,48,29,13,29.98,29.87,24,11,30,0.00
2013-6-27,107.0,91.3,0.0,0.0,0.0,0.0,47,27,13,30.07,-0.01,18,8,23,0.00
2013-6-28,112.0,95.1,0.0,0.0,0.0,0.0,40,24,9,30.02,29.85,21,9,22,0.00
2013-6-29,113.0,97.4,81.0,0.0,0.0,0.0,35,20,8,29.93,29.77,20,8,25,0.00
2013-6-30,115.0,98.7,83.0,0.0,0.0,0.0,29,18,7,29.87,29.72,21,8,26,0.00
2013-7-1,112.0,100.7,88.0,0.0,0.0,0.0,25,17,9,29.92,29.76,29,12,37,0.00
2013-7-2,93.0,86.7,78.0,0.0,0.0,0.0,55,28,22,30.00,29.88,21,10,29,0.00
2013-7-3,113.0,101.5,0.0,0.0,0.0,0.0,26,17,10,29.95,29.70,22,9,28,0.00
2013-7-4,113.0,97.5,84.0,0.0,0.0,0.0,30,20,11,29.80,29.64,28,10,33,0.00
2013-7-5,107.0,92.8,79.0,0.0,0.0,0.0,35,25,13,29.77,29.65,32,16,40,0.00
2013-7-6,107.0,91.5,79.0,0.0,0.0,0.0,35,20,8,29.79,29.68,26,14,31,0.00
2013-7-7,108.0,92.8,78.0,0.0,0.0,0.0,36,17,8,29.84,29.72,24,11,33,0.00
2013-7-8,108.0,94.7,78.0,0.0,0.0,0.0,17,11,6,29.97,29.84,28,11,33,0.00
2013-7-9,110.0,93.8,0.0,0.0,0.0,0.0,18,11,6,30.03,-0.01,25,11,31,0.00
2013-7-10,110.0,93.8,84.0,0.0,0.0,0.0,21,14,9,29.97,29.87,21,8,25,0.00
2013-7-11,92.0,86.5,80.0,0.0,0.0,0.0,33,27,22,29.96,29.86,23,11,26,0.00
2013-7-12,101.0,85.8,0.0,0.0,0.0,0.0,41,22,8,29.94,29.81,24,11,28,0.00
2013-7-13,104.0,90.3,74.0,0.0,0.0,0.0,25,16,9,29.95,29.83,24,12,29,0.00
2013-7-14,84.0,79.4,78.0,0.0,0.0,0.0,24,23,17,29.93,29.90,13,11,16,0.00
2013-7-15,104.0,89.5,79.0,0.0,0.0,0.0,24,17,10,29.93,29.74,30,14,37,0.00
2013-7-16,99.0,84.8,0.0,0.0,0.0,0.0,21,12,4,29.95,29.83,24,13,28,0.00
2013-7-17,103.0,87.9,68.0,0.0,0.0,0.0,25,14,5,30.05,29.93,20,7,24,0.00
2013-7-18,108.0,90.4,73.0,0.0,0.0,0.0,30,16,6,30.02,29.83,15,6,18,0.00
2013-7-19,110.0,94.1,77.0,0.0,0.0,0.0,28,16,8,29.92,29.75,25,8,25,0.00
2013-7-20,108.0,93.1,0.0,0.0,0.0,0.0,30,20,12,29.87,29.73,25,9,30,0.00
2013-7-21,98.0,89.0,81.0,0.0,0.0,0.0,55,37,22,29.95,29.80,21,8,25,0.00
2013-7-22,98.0,82.0,0.0,0.0,0.0,0.0,75,45,29,29.98,29.90,40,8,52,0.00
2013-7-23,101.0,86.1,71.0,0.0,0.0,0.0,75,45,25,30.02,29.88,20,6,22,0.00
2013-7-24,106.0,90.1,76.0,0.0,0.0,0.0,47,30,15,29.96,29.81,16,8,22,0.00
2013-7-25,109.0,93.4,79.0,0.0,0.0,0.0,36,23,13,29.97,29.86,20,9,25,0.00
2013-7-26,100.0,90.1,82.0,0.0,0.0,0.0,37,27,19,30.06,29.98,20,10,31,0.00
2013-7-27,97.0,87.2,75.0,0.0,0.0,0.0,71,38,26,30.04,29.84,14,6,20,0.00
2013-7-28,103.0,87.7,78.0,0.0,0.0,0.0,46,30,15,29.88,29.76,25,7,35,0.00
2013-7-29,101.0,86.7,72.0,0.0,0.0,0.0,24,16,7,29.98,29.86,25,11,31,0.00
2013-7-30,103.0,89.6,75.0,0.0,0.0,0.0,32,20,12,30.07,29.94,24,9,26,0.00
2013-7-31,103.0,92.6,79.0,0.0,0.0,0.0,22,15,4,30.06,29.89,28,12,35,0.00
2013-8-1,101.0,81.9,0.0,0.0,0.0,0.0,35,20,7,29.96,29.80,31,15,35,0.00
2013-8-2,98.0,83.1,67.0,0.0,0.0,0.0,28,16,6,29.93,29.82,22,11,29,0.00
2013-8-3,100.0,84.3,67.0,0.0,0.0,0.0,28,15,4,29.96,29.86,22,10,28,0.00
2013-8-4,103.0,86.5,70.0,0.0,0.0,0.0,28,14,4,29.98,29.86,23,12,30,0.00
2013-8-5,101.0,85.8,0.0,0.0,0.0,0.0,22,13,4,29.98,29.84,25,12,29,0.00
2013-8-6,102.0,84.6,69.0,0.0,0.0,0.0,25,17,6,29.97,29.86,33,15,38,0.00
2013-8-7,99.0,82.3,69.0,0.0,0.0,0.0,31,19,4,29.98,29.87,33,18,46,0.00
2013-8-8,94.0,80.2,67.0,0.0,0.0,0.0,35,21,5,29.95,29.83,32,17,38,0.00
2013-8-9,94.0,79.5,62.0,0.0,0.0,0.0,40,22,6,29.93,29.84,21,10,25,0.00
2013-8-12,102.0,91.8,77.0,0.0,0.0,0.0,27,14,7,29.99,29.85,16,6,21,0.00
2013-8-13,104.0,86.9,67.0,0.0,0.0,0.0,33,17,7,29.99,29.86,16,6,20,0.00
2013-8-14,105.0,88.8,73.0,0.0,0.0,0.0,27,15,6,29.97,29.85,18,7,28,0.00
2013-8-15,92.0,79.6,73.0,0.0,0.0,0.0,24,19,13,29.97,29.91,13,7,20,0.00
2013-8-27,93.0,85.3,0.0,0.0,0.0,0.0,68,40,27,29.95,29.80,21,6,30,0.00
2013-8-28,102.0,92.4,69.0,0.0,0.0,0.0,68,30,20,29.94,29.83,18,6,25,0.00
2013-8-29,104.0,89.5,0.0,0.0,0.0,0.0,38,26,17,30.02,29.93,24,9,39,0.00
2013-9-3,101.0,91.9,80.0,0.0,0.0,0.0,56,31,18,29.97,29.85,22,8,29,0.00
2013-9-4,104.0,81.3,74.0,0.0,0.0,0.0,47,36,14,29.97,29.91,15,5,17,0.00
2013-9-5,102.0,92.9,77.0,0.0,0.0,0.0,35,24,15,29.98,29.86,21,10,25,0.00
2013-9-6,103.0,89.7,0.0,0.0,0.0,0.0,37,23,13,29.96,29.82,24,11,31,0.00
2013-9-7,86.0,84.0,82.0,0.0,0.0,0.0,33,29,27,29.92,29.91,15,11,18,0.00
2013-9-9,95.0,87.2,75.0,0.0,0.0,0.0,56,30,18,29.88,29.70,13,4,16,0.00
2013-9-10,94.0,81.6,72.0,0.0,0.0,0.0,52,32,18,29.90,29.77,22,8,24,0.00
2013-9-11,93.0,82.3,72.0,0.0,0.0,0.0,31,24,15,29.96,29.87,16,6,18,0.00
2013-9-12,96.0,81.6,0.0,0.0,0.0,0.0,41,25,9,29.97,29.82,17,6,23,0.00
2013-9-13,96.0,82.9,67.0,0.0,0.0,0.0,42,27,16,29.88,29.70,14,4,17,0.00
2013-9-14,96.0,84.8,72.0,0.0,0.0,0.0,40,27,18,29.81,29.76,14,5,16,0.00
2013-9-16,101.0,90.0,72.0,0.0,0.0,0.0,35,17,11,29.89,29.75,21,9,25,0.00
2013-9-17,95.0,81.1,0.0,0.0,0.0,0.0,38,18,5,29.82,29.66,32,14,37,0.00
2013-9-18,91.0,78.2,61.0,0.0,0.0,0.0,42,22,10,29.82,29.71,21,5,24,0.00
2013-9-19,94.0,76.0,56.0,0.0,0.0,0.0,29,16,8,29.90,29.78,14,5,18,0.00
2013-9-20,96.0,84.6,61.0,0.0,0.0,0.0,26,14,8,29.85,29.72,23,9,29,0.00
2013-9-23,88.0,75.3,51.0,0.0,0.0,0.0,49,23,13,30.00,29.89,8,3,12,0.00
2013-9-24,94.0,82.1,62.0,0.0,0.0,0.0,29,15,5,29.95,29.76,29,14,36,0.00
2013-9-25,80.0,69.8,60.0,0.0,0.0,0.0,52,27,11,29.70,29.53,41,24,48,0.00
2013-9-26,73.0,63.7,51.0,0.0,0.0,0.0,44,25,14,29.91,29.62,14,5,22,0.00
2013-9-27,76.0,60.1,48.0,0.0,0.0,0.0,39,25,12,30.08,29.91,16,4,20,0.00
2013-9-30,89.0,78.4,60.0,0.0,0.0,0.0,32,19,11,30.01,29.82,18,5,25,0.00
2013-10-1,92.0,75.3,60.0,0.0,0.0,0.0,45,28,13,29.93,29.78,26,11,36,0.00
2013-10-2,89.0,72.5,62.0,0.0,0.0,0.0,52,34,12,29.90,29.73,31,16,36,0.00
2013-10-3,84.0,70.3,59.0,0.0,0.0,0.0,37,20,10,29.98,29.75,22,10,30,0.00
2013-10-4,72.0,63.5,57.0,0.0,0.0,0.0,19,14,10,30.22,29.98,21,9,29,0.00
2013-10-5,77.0,66.0,57.0,0.0,0.0,0.0,24,15,8,30.34,30.21,23,10,33,0.00
2013-10-6,84.0,81.7,81.0,0.0,0.0,0.0,11,9,7,30.12,30.10,8,4,12,0.00
2013-10-7,86.0,71.3,48.0,0.0,0.0,0.0,21,12,6,30.04,29.86,23,8,26,0.00
2013-10-8,83.0,69.3,58.0,0.0,0.0,0.0,54,23,8,29.86,29.64,38,14,40,0.00
2013-10-9,63.0,54.8,47.0,0.0,0.0,0.0,66,54,36,29.73,29.56,41,22,50,0.00
2013-10-10,72.0,57.6,45.0,0.0,0.0,0.0,68,42,21,29.96,29.73,21,9,24,0.00
2013-10-11,78.0,61.9,46.0,0.0,0.0,0.0,65,37,18,30.07,29.93,16,5,18,0.00
2013-10-12,78.0,69.5,60.0,0.0,0.0,0.0,36,24,12,29.87,29.82,29,17,33,0.00
2013-10-13,77.0,64.6,54.0,0.0,0.0,0.0,41,28,13,30.04,29.81,26,11,32,0.00
2013-10-14,73.0,60.3,44.0,0.0,0.0,0.0,44,27,16,30.16,30.02,15,4,20,0.00
2013-10-15,75.0,59.4,0.0,0.0,0.0,0.0,42,23,11,30.09,30.00,14,5,20,0.00
2013-10-16,76.0,61.2,44.0,0.0,0.0,0.0,31,19,11,30.20,30.06,12,4,13,0.00
2013-10-17,79.0,61.2,43.0,0.0,0.0,0.0,30,18,10,30.10,29.94,7,4,10,0.00
2013-10-18,80.0,66.4,43.0,0.0,0.0,0.0,30,15,8,30.12,30.02,9,4,12,0.00
2013-10-19,83.0,63.2,43.0,0.0,0.0,0.0,28,15,8,30.14,30.00,12,4,16,0.00
2013-10-20,62.0,50.9,45.0,0.0,0.0,0.0,25,19,13,30.02,30.00,10,5,14,0.00
2013-10-21,84.0,69.1,47.0,0.0,0.0,0.0,25,14,8,30.05,29.97,12,5,20,0.00
2013-10-22,83.0,62.1,46.0,0.0,0.0,0.0,29,17,10,30.09,29.97,10,4,15,0.00
2013-10-23,83.0,55.4,50.0,0.0,0.0,0.0,27,23,12,30.02,29.97,7,5,8,0.00
2013-10-24,46.0,46.0,46.0,0.0,0.0,0.0,26,26,26,29.95,29.95,6,6,6,0.00
2013-10-29,55.0,48.0,43.0,0.0,0.0,0.0,75,64,47,29.90,29.86,17,10,21,0.00
2013-11-6,69.0,64.3,57.0,0.0,0.0,0.0,16,12,9,30.36,30.27,8,3,10,0.00
2013-11-13,79.0,77.7,76.0,0.0,0.0,0.0,10,9,9,30.09,30.09,3,2,6,0.00
2013-11-14,80.0,69.6,62.0,0.0,0.0,0.0,28,18,11,933.60,40.00,26,9,30,0.00
2013-11-15,72.0,63.6,56.0,0.0,0.0,0.0,41,28,16,921.10,40.00,29,12,33,0.00
2013-11-18,66.0,58.4,50.0,0.0,0.0,0.0,53,40,32,935.80,40.00,5,2,8,0.00
2013-11-19,65.0,56.7,48.0,0.0,0.0,0.0,65,43,33,930.20,40.00,14,4,18,0.00
2013-11-20,71.0,58.2,50.0,0.0,0.0,0.0,80,50,30,927.70,40.00,30,10,35,0.00
2013-11-21,56.0,52.6,50.0,0.0,0.0,0.0,84,74,60,924.80,40.00,24,11,30,0.00
2013-11-25,60.0,47.2,35.0,0.0,0.0,0.0,86,64,34,940.00,40.00,10,3,10,0.00
2013-11-26,62.0,49.0,36.0,0.0,0.0,0.0,84,60,38,939.80,30.16,8,3,10,0.00
2013-11-27,64.0,50.3,40.0,0.0,0.0,0.0,82,58,32,30.16,29.97,10,4,14,0.00
2013-11-28,62.0,49.6,38.0,0.0,0.0,0.0,81,56,30,30.12,29.97,17,4,20,0.00
2013-11-29,59.0,48.1,36.0,0.0,0.0,0.0,82,62,38,30.23,30.11,7,3,8,0.00
2013-11-30,64.0,49.4,38.0,0.0,0.0,0.0,83,58,27,30.27,30.16,7,3,9,0.00
2013-12-1,68.0,48.6,35.0,0.0,0.0,0.0,80,53,24,30.34,30.22,8,4,9,0.00
2013-12-2,66.0,53.3,37.0,0.0,0.0,0.0,72,39,15,30.23,29.76,30,7,36,0.00
2013-12-3,68.0,59.5,46.0,0.0,0.0,0.0,63,38,14,29.76,29.55,47,23,55,0.00
2013-12-4,48.0,40.5,32.0,0.0,0.0,0.0,55,33,20,29.97,29.66,30,5,31,0.00
2013-12-5,46.0,35.6,26.0,0.0,0.0,0.0,52,32,19,30.07,29.95,13,3,15,0.00
2013-12-6,48.0,36.0,23.0,0.0,0.0,0.0,64,40,14,30.13,29.95,24,7,30,0.00
2013-12-7,50.0,40.2,29.0,0.0,0.0,0.0,65,37,21,30.03,29.79,40,19,47,0.00
2013-12-8,43.0,31.6,22.0,0.0,0.0,0.0,65,41,22,30.23,30.02,8,4,9,0.00
2013-12-9,45.0,33.1,20.0,0.0,0.0,0.0,59,24,10,30.45,30.23,23,8,26,0.00
2013-12-10,48.0,33.1,19.0,0.0,0.0,0.0,42,25,12,30.43,30.20,8,4,9,0.00
2013-12-11,54.0,36.1,21.0,0.0,0.0,0.0,49,31,14,30.32,30.22,7,4,9,0.00
2013-12-12,56.0,40.1,27.0,0.0,0.0,0.0,48,32,16,30.28,30.13,8,4,9,0.00
2013-12-13,58.0,46.1,33.0,0.0,0.0,0.0,43,27,15,30.32,30.11,9,3,9,0.00
2013-12-14,60.0,45.9,32.0,0.0,0.0,0.0,48,32,18,30.45,30.31,13,6,17,0.00
2013-12-16,64.0,49.1,34.0,0.0,0.0,0.0,52,32,16,30.35,30.23,8,4,10,0.00
2013-12-17,61.0,55.1,36.0,0.0,0.0,0.0,52,25,18,30.31,30.21,8,4,9,0.00
2013-12-18,62.0,57.2,47.0,0.0,0.0,0.0,48,25,18,30.21,29.66,26,5,32,0.00
2013-12-19,58.0,49.5,44.0,0.0,0.0,0.0,72,51,32,29.81,29.57,36,12,39,0.00
2013-12-20,56.0,43.7,32.0,0.0,0.0,0.0,55,35,17,29.92,29.79,9,4,13,0.00
2013-12-21,60.0,45.2,31.0,0.0,0.0,0.0,62,40,21,30.08,29.85,13,4,16,0.00
2013-12-22,62.0,45.2,32.0,0.0,0.0,0.0,66,45,23,30.34,30.07,7,4,9,0.00
2013-12-23,63.0,44.6,32.0,0.0,0.0,0.0,66,47,26,30.44,30.33,9,4,9,0.00
2013-12-24,65.0,47.0,32.0,0.0,0.0,0.0,73,47,24,30.35,30.22,8,3,8,0.00
2013-12-25,65.0,50.0,35.0,0.0,0.0,0.0,60,31,10,30.40,30.28,12,4,16,0.00
2013-12-26,63.0,43.6,29.0,0.0,0.0,0.0,48,30,14,30.35,30.24,8,5,9,0.00
2013-12-27,63.0,45.4,29.0,0.0,0.0,0.0,45,26,12,30.31,30.12,8,4,9,0.00
2013-12-28,65.0,49.1,37.0,0.0,0.0,0.0,33,22,11,30.12,29.98,8,3,9,0.00
2013-12-29,62.0,50.8,36.0,0.0,0.0,0.0,28,18,9,30.25,30.10,18,7,24,0.00
2013-12-30,61.0,43.3,29.0,0.0,0.0,0.0,34,23,11,30.33,30.21,7,4,9,0.00
2013-12-31,60.0,43.8,30.0,0.0,0.0,0.0,40,25,11,30.25,30.12,8,4,9,0.00
2014-1-2,66.0,50.5,32.0,0.0,0.0,0.0,54,30,16,30.24,30.09,7,4,8,0.00